This is the latest recevied weather packets stored in our database for station/object K7DC. If no packets are shown the sender has not sent any weather packets the latest 10 day(s).
| Time | Temp. | Humidity | Pressure | Rain* | Wind** | Luminosity | Snow |
|---|---|---|---|---|---|---|---|
| 1777758549 | 31.67° C | 19% | 1013 hPa | 0 mm | - | 692 W/m² | - |
| 1777758245 | 31.11° C | 20% | 1013.1 hPa | 0 mm | - | 719 W/m² | - |
| 1777757943 | 31.11° C | 19% | 1012.9 hPa | 0 mm | - | 681 W/m² | - |
| 1777757639 | 31.67° C | 19% | 1013.3 hPa | 0 mm | - | 686 W/m² | - |
| 1777757339 | 31.11° C | 19% | 1013.3 hPa | 0 mm | - | 790 W/m² | - |
| 1777757037 | 32.22° C | 19% | 1013.5 hPa | 0 mm | - | 773 W/m² | - |
| 1777756734 | 32.22° C | 18% | 1013.7 hPa | 0 mm | - | 854 W/m² | - |
| 1777756429 | 31.11° C | 19% | 1013.7 hPa | 0 mm | - | 862 W/m² | - |
| 1777756127 | 30° C | 21% | 1013.5 hPa | 0 mm | - | 871 W/m² | - |
| 1777755824 | 30° C | 21% | 1013.8 hPa | 0 mm | - | 238 W/m² | - |
| 1777755521 | 31.11° C | 20% | 1013.9 hPa | 0 mm | - | 218 W/m² | - |
| 1777755217 | 31.11° C | 20% | 1013.7 hPa | 0 mm | - | 907 W/m² | - |
| 1777754914 | 31.11° C | 20% | 1013.9 hPa | 0 mm | - | 401 W/m² | - |
| 1777754611 | 30.56° C | 20% | 1013.9 hPa | 0 mm | - | 919 W/m² | - |
| 1777754308 | 30.56° C | 21% | 1014 hPa | 0 mm | - | 763 W/m² | - |
| 1777754006 | 30° C | 21% | 1013.9 hPa | 0 mm | - | 951 W/m² | - |
| 1777753706 | 30° C | 21% | 1014.2 hPa | 0 mm | - | 909 W/m² | - |
| 1777753404 | 29.44° C | 22% | 1014.2 hPa | 0 mm | - | 749 W/m² | - |
| 1777753102 | 30° C | 22% | 1014.2 hPa | 0 mm | - | 258 W/m² | - |
| 1777752798 | 30.56° C | 21% | 1014.2 hPa | 0 mm | - | 1038 W/m² | - |
| 1777752494 | 31.67° C | 20% | 1014.2 hPa | 0 mm | - | 919 W/m² | - |
| 1777752190 | 31.11° C | 21% | 1014.5 hPa | 0 mm | - | 821 W/m² | - |
| 1777751888 | 30.56° C | 21% | 1014.4 hPa | 0 mm | - | 982 W/m² | - |
| 1777751585 | 30.56° C | 21% | 1014.6 hPa | 0 mm | - | 897 W/m² | - |
| 1777751281 | 30.56° C | 22% | 1014.7 hPa | 0 mm | - | 1017 W/m² | - |
* Rain latest hour (hover to see other rain measurements)
** Current wind speed in m/s (hover to see current wind gust speed)